Delavan, Wisconsin, United States (53115)
Lat: 42.63N, Lon: 88.64W
Wx Zone: WIZ070
Local Info
Past Weather Observations for Today

NOTE: This archive is for the closest National Weather Service station to Delavan. Information may differ from the station used for current weather conditions.

Click here for Long-term Archive

Time Weather Temperature Dewpoint Humidity Pressure Winds Precip Visibility
08:55
Overcast
59°F / 15°C 57°F / 14°C 94% 30.21 in
(1023 mb)
NE 12.7 mph
(NE 20 kph)
- 7SM
08:35
Overcast
59°F / 15°C 57°F / 14°C 94% 30.21 in
(1023 mb)
NE 10.4 mph
(NE 17 kph)
- 7SM
08:15
Overcast
59°F / 15°C 57°F / 14°C 94% 30.21 in
(1023 mb)
NE 9.2 mph
(NE 15 kph)
- 10SM
07:55
Overcast
57°F / 14°C 57°F / 14°C 100% 30.21 in
(1023 mb)
NE 11.5 mph
(NE 19 kph)
- 10SM
07:35
Overcast
57°F / 14°C 57°F / 14°C 100% 30.21 in
(1023 mb)
NE 13.8 mph
(NE 22 kph)
- 10SM
07:15
Overcast
57°F / 14°C 55°F / 13°C 94% 30.18 in
(1022 mb)
NE 8.1 mph
(NE 13 kph)
- 10SM
06:55
Overcast
57°F / 14°C 55°F / 13°C 94% 30.18 in
(1022 mb)
NE 9.2 mph
(NE 15 kph)
- 10SM
06:35
Overcast
57°F / 14°C 55°F / 13°C 94% 30.18 in
(1022 mb)
NNE 9.2 mph
(NNE 15 kph)
- 10SM
06:15
Overcast
57°F / 14°C 55°F / 13°C 94% 30.21 in
(1023 mb)
Calm - 10SM
05:55
Overcast
57°F / 14°C 55°F / 13°C 94% 30.21 in
(1023 mb)
NE 5.8 mph
(NE 9 kph)
- 10SM
05:35
Overcast
57°F / 14°C 55°F / 13°C 94% 30.21 in
(1023 mb)
NE 6.9 mph
(NE 11 kph)
- 10SM
05:15
Overcast
Fog And Mist
57°F / 14°C 55°F / 13°C 94% 30.21 in
(1023 mb)
NE 10.4 mph
(NE 17 kph)
- 5SM
04:55
Overcast
Fog And Mist
57°F / 14°C 55°F / 13°C 94% 30.21 in
(1023 mb)
NE 9.2 mph
(NE 15 kph)
- 4SM
04:35
Overcast
57°F / 14°C 55°F / 13°C 94% 30.21 in
(1023 mb)
NE 9.2 mph
(NE 15 kph)
- 7SM
04:15
Overcast
Drizzle
57°F / 14°C 55°F / 13°C 94% 30.21 in
(1023 mb)
NE 9.2 mph
(NE 15 kph)
- 5SM
03:55
Overcast
Drizzle
57°F / 14°C 55°F / 13°C 94% 30.21 in
(1023 mb)
NNE 6.9 mph
(NNE 11 kph)
- 4SM
03:35
Overcast
Drizzle
57°F / 14°C 55°F / 13°C 94% 30.21 in
(1023 mb)
N 10.4 mph
(N 17 kph)
- 4SM
03:15
Overcast
57°F / 14°C 55°F / 13°C 94% 30.21 in
(1023 mb)
NNE 9.2 mph
(NNE 15 kph)
- 10SM
02:55
Overcast
59°F / 15°C 54°F / 12°C 82% 30.21 in
(1023 mb)
NNE 9.2 mph
(NNE 15 kph)
- 10SM
02:35
Overcast
59°F / 15°C 54°F / 12°C 82% 30.21 in
(1023 mb)
NE 11.5 mph
(NE 19 kph)
- 10SM
02:15
Overcast
59°F / 15°C 54°F / 12°C 82% 30.21 in
(1023 mb)
NE 8.1 mph
(NE 13 kph)
- 10SM
01:55
Overcast
59°F / 15°C 54°F / 12°C 82% 30.21 in
(1023 mb)
NE 8.1 mph
(NE 13 kph)
- 10SM
01:35
Overcast
59°F / 15°C 54°F / 12°C 82% 30.21 in
(1023 mb)
NE 9.2 mph
(NE 15 kph)
- 10SM
01:15
Overcast
59°F / 15°C 54°F / 12°C 82% 30.21 in
(1023 mb)
NNE 10.4 mph
(NNE 17 kph)
- 10SM
00:55
Overcast
59°F / 15°C 54°F / 12°C 82% 30.21 in
(1023 mb)
NNE 10.4 mph
(NNE 17 kph)
- 10SM
00:35
Overcast
59°F / 15°C 54°F / 12°C 82% 30.21 in
(1023 mb)
NNE 11.5 mph
(NNE 19 kph)
- 10SM
00:15
Overcast
59°F / 15°C 54°F / 12°C 82% 30.24 in
(1024 mb)
NE 8.1 mph
(NE 13 kph)
- 10SM
Time Weather Temperature Dewpoint Humidity Pressure Winds Precip Visibility


Weather for websites

WeatherForYou.com, LLC is not responsible for any damages or problems caused by this service. Current weather conditions are obtained from the closest station including government and personal stations which may have varying degrees of accuracy. Weather forecasts are derived from the NOAA NDFD. Like all things, this site belongs to Jesus Christ... He just trusts us to maintain it. If you have any questions or comments email webmaster@weatherforyou.com

Copyright © 2016, WeatherForYou.com LLC. All rights reserved.